Location: Newark
(58.8333°N, 23.5833°E)
Time: 12:59:51
(UTC+00:00)

METEOR M2 - Pass Details

Date: 14 December 2019
Orbit: 819 x 827 km, 98.5° (Epoch: 19 January)

Event Time Altitude Azimuth Distance (km) Brightness Sun altitude
Exits shadow 20:02:11 10° 311° (NW) 2,427 ? -46.8°
Drops below altitude 10° 20:02:18 10° 312° (NW) 2,447 ? -46.8°
Sets 20:05:49 0° 336° (NNW) 3,367 ? -47.2°
